Location: Unspecified
(40.7945°N, 0.0000°E)
Time: 07:42:21
(UTC+00:00)

Courier 1B - Pass Details

Date: 27 January 2021
Orbit: 962 x 1209 km, 28.3° (Epoch: 06 March)

Event Time Altitude Azimuth Distance (km) Brightness Sun altitude
Rises 23:58:32 0° 246° (WSW) 3,756 - -67.5°
Reaches altitude 10° 00:01:40 10° 235° (SW) 2,769 - -67.5°
Maximum altitude 00:07:08 27° 180° (S) 1,767 - -67.6°
Drops below altitude 10° 00:12:28 10° 124° (SE) 2,691 - -67.7°
Sets 00:15:28 0° 112° (ESE) 3,631 - -67.6°
